Date,TemperatureHighF,TemperatureAvgF,TemperatureLowF,DewpointHighF,DewpointAvgF,DewpointLowF,HumidityHigh,HumidityAvg,HumidityLow,PressureMaxIn,PressureMinIn,WindSpeedMaxMPH,WindSpeedAvgMPH,GustSpeedMaxMPH,PrecipitationSumIn
2013-1-1,75.4,65.6,55.4,61.7,58.3,52.0,90,78,61,30.21,30.04,9,2,13,0.01
2013-1-2,74.8,67.8,63.0,68.8,63.9,59.8,92,87,80,30.07,29.99,7,2,14,0.00
2013-1-3,79.3,67.2,60.9,68.8,63.0,57.9,92,87,61,30.14,30.02,6,1,9,0.05
2013-1-4,64.8,60.8,57.9,60.4,57.6,55.2,91,89,85,30.26,30.12,2,0,4,0.00
2013-1-5,77.5,65.3,58.7,66.6,60.2,55.8,92,84,68,30.28,30.16,2,0,6,0.00
2013-1-6,78.2,69.2,63.3,71.0,65.2,60.6,92,87,77,30.18,30.06,8,1,13,0.00
2013-1-7,67.3,64.8,61.5,63.7,61.0,58.3,90,87,81,30.19,30.09,3,0,5,0.00
2013-1-8,83.7,71.6,62.4,70.8,65.5,59.3,91,82,62,30.20,30.10,3,1,6,0.00
2013-1-9,85.3,78.3,71.2,71.9,69.5,67.5,90,75,60,30.27,30.15,4,1,8,0.00
2013-1-10,83.4,74.4,68.9,69.9,66.6,63.2,91,78,56,30.27,30.18,7,1,8,0.00
2013-1-11,83.9,73.5,65.9,69.3,65.0,62.2,90,76,51,30.25,30.12,7,2,13,0.00
2013-1-12,82.4,71.8,65.4,70.2,66.3,62.4,90,83,61,30.17,30.07,6,1,11,0.00
2013-1-13,80.6,72.3,66.0,68.7,66.0,62.9,90,81,65,30.15,30.04,4,1,9,0.00
2013-1-14,79.0,70.7,63.5,66.4,62.7,59.4,90,77,55,30.18,30.11,6,1,12,0.00
2013-1-15,78.4,68.0,61.8,67.6,62.5,58.4,90,83,60,30.14,30.04,7,1,11,0.00
2013-1-16,79.4,71.8,66.4,67.5,64.7,61.7,90,79,55,30.05,30.00,6,2,10,0.00
2013-1-17,73.1,65.4,57.8,69.7,60.2,49.2,91,84,68,30.15,30.00,6,2,9,0.03
2013-1-18,64.7,55.7,44.0,57.1,48.7,36.9,88,78,65,30.31,30.14,4,2,7,0.00
2013-1-19,74.0,65.2,55.1,62.8,58.1,51.0,88,78,67,30.26,30.11,4,1,7,0.00
2013-1-20,75.2,66.7,62.0,65.5,61.6,58.4,89,84,71,30.17,30.03,2,0,4,0.00
2013-1-21,75.1,66.2,62.7,66.0,59.7,54.4,85,80,72,30.10,30.02,2,0,6,0.00
2013-1-22,66.8,61.2,54.9,55.3,44.7,33.7,77,57,31,30.28,30.07,4,1,7,0.00
2013-1-23,68.9,58.4,49.2,49.8,41.9,35.4,83,56,30,30.36,30.26,3,0,5,0.00
2013-1-24,70.4,56.3,43.7,53.8,45.8,40.1,89,70,48,30.34,30.24,2,0,4,0.00
2013-1-26,63.0,59.8,56.9,58.8,55.8,53.4,88,87,85,30.24,30.22,0,0,0,0.00
2013-1-27,78.8,68.9,55.5,61.0,56.3,52.6,91,66,43,30.29,30.19,3,1,6,0.00
2013-1-28,81.3,72.0,61.8,65.6,62.8,58.5,89,74,53,30.31,30.20,5,1,10,0.00
2013-1-29,81.3,73.2,62.2,68.6,66.1,58.9,90,79,59,30.21,30.08,10,4,14,0.00
2013-1-30,77.3,73.3,67.1,69.1,67.1,63.4,88,81,71,30.03,29.92,14,9,22,0.00
2013-1-31,63.0,58.9,54.3,58.9,43.8,35.2,90,58,44,30.24,30.00,4,2,7,0.03
2013-2-1,66.8,58.7,46.7,47.7,38.9,30.2,74,51,26,30.36,30.25,4,1,6,0.00
2013-2-2,71.0,61.4,48.1,52.4,46.4,39.4,76,60,36,30.29,30.15,2,0,5,0.00
2013-2-3,70.2,60.2,45.2,56.6,51.9,41.4,89,75,59,30.21,30.10,2,0,5,0.00
2013-2-4,69.0,58.8,45.0,52.2,46.1,37.2,91,65,33,30.14,30.04,6,1,11,0.00
2013-2-5,73.4,65.5,48.7,57.3,52.4,41.0,86,64,49,30.08,30.00,7,2,15,0.00
2013-2-6,77.3,67.1,57.7,64.9,59.6,53.5,89,78,56,30.11,30.01,7,1,12,0.00
2013-2-7,77.4,69.6,62.7,66.7,63.9,59.4,90,83,62,30.05,29.89,12,4,18,0.06
2013-2-8,75.7,68.2,61.8,66.0,62.5,58.0,90,82,61,30.08,29.89,8,2,13,0.00
2013-2-9,75.1,66.3,57.6,60.2,56.9,54.1,90,73,54,30.19,30.05,3,1,5,0.00
2013-2-10,81.0,70.5,62.2,64.7,61.5,57.4,86,74,54,30.23,30.12,6,2,13,0.00
2013-2-11,78.5,69.8,62.3,68.4,64.0,59.0,90,82,68,30.19,30.08,10,4,19,0.00
2013-2-12,77.5,72.4,66.2,71.2,68.2,63.2,90,87,79,30.10,29.95,11,5,16,0.00
2013-2-13,77.6,71.3,63.7,72.4,67.1,56.6,92,87,72,29.99,29.86,11,5,17,0.01
2013-2-14,66.0,64.6,63.7,58.2,55.9,55.0,76,73,70,29.99,29.94,1,0,3,0.00
2013-2-16,66.8,59.0,56.6,55.3,47.4,39.7,85,66,51,30.12,29.98,5,3,10,0.03
2013-2-17,56.4,46.5,42.1,40.9,23.8,-99.9,74,47,37,30.34,30.12,5,-52,10,0.00
2013-2-18,70.3,50.5,38.8,48.8,21.6,-99.9,78,46,37,30.35,30.19,6,-139,9,0.00
2013-2-19,74.2,61.6,53.1,63.3,49.2,-99.9,89,73,61,30.21,30.08,10,-47,13,0.00
2013-2-20,78.2,67.7,61.9,66.8,62.2,58.9,91,83,63,30.12,30.00,3,0,5,0.00
2013-2-21,79.3,56.9,60.1,68.2,30.7,-99.9,89,62,65,30.11,29.98,8,-203,12,0.00
2013-2-22,79.6,63.4,64.1,71.0,44.9,-99.9,89,72,73,30.06,29.99,11,-131,15,0.00
2013-2-23,78.4,51.2,69.9,73.0,17.1,-99.9,90,60,82,30.00,29.90,10,-308,14,0.00
2013-2-24,73.0,33.3,68.2,69.6,-21.3,-99.9,91,42,89,29.97,29.89,3,-531,4,0.00
2013-2-25,80.2,48.7,67.7,72.9,9.7,-99.9,90,54,78,29.90,29.77,9,-352,14,0.00
2013-2-26,76.1,17.5,73.4,71.9,-60.0,-99.9,88,20,87,29.80,29.70,20,-764,20,0.00
2013-3-9,66.4,64.1,61.9,52.8,52.4,52.1,71,66,61,30.17,30.15,1,0,2,0.00
2013-3-10,78.9,45.7,59.2,59.8,0.5,-99.9,83,39,46,30.15,30.04,7,-358,11,0.00
2013-3-12,65.2,62.0,59.2,61.2,56.4,52.7,89,82,77,30.05,29.95,2,1,12,0.06
2013-3-13,70.3,45.6,59.2,53.9,5.6,-99.9,81,40,34,30.19,30.03,4,-281,6,0.00
2013-3-14,64.3,49.5,54.3,52.2,19.0,-99.9,74,45,35,30.27,30.17,3,-157,6,0.00
2013-3-15,69.6,44.0,44.3,49.3,3.5,-99.9,89,40,29,30.29,30.16,2,-280,2,0.00
2013-3-16,72.3,59.6,46.2,59.6,50.4,42.4,87,73,47,30.19,30.08,8,2,13,0.00
2013-3-17,74.5,63.6,53.4,62.1,56.6,49.9,90,79,62,30.13,30.00,8,2,15,0.00
2013-3-18,74.4,67.4,61.1,67.1,63.2,57.8,89,87,78,30.03,29.88,11,3,16,0.07
2013-3-19,80.6,70.4,65.0,68.8,64.5,61.8,90,82,65,30.01,29.88,7,1,12,0.00
2013-3-20,73.1,67.1,60.5,63.7,61.8,57.5,90,83,62,29.97,29.81,5,1,9,0.22
2013-3-21,67.2,60.7,50.6,58.2,45.3,34.8,90,60,36,29.99,29.88,2,1,4,0.00
2013-3-22,76.1,62.9,47.2,68.5,54.8,43.0,89,76,52,30.00,29.88,7,2,10,0.09
2013-3-23,76.9,70.9,66.3,72.4,67.5,63.3,91,89,85,29.97,29.80,10,3,13,0.05
2013-3-24,77.5,72.9,70.8,72.7,69.5,67.6,91,89,85,29.83,29.67,10,5,18,0.03
2013-3-25,70.9,64.0,57.7,67.5,53.5,41.9,90,70,45,30.06,29.76,4,2,6,0.00
2013-3-26,60.1,55.6,51.5,48.5,41.2,37.1,68,58,49,30.25,30.04,4,2,7,0.00
2013-3-27,57.5,51.6,45.6,43.3,38.1,33.0,74,60,50,30.33,30.21,2,1,5,0.00
2013-3-28,65.8,50.8,44.8,43.9,41.1,34.7,85,72,33,30.31,30.23,1,0,2,0.00
2013-4-6,72.1,66.9,59.3,61.8,58.7,54.1,85,75,64,30.10,30.02,2,0,3,0.00
2013-4-7,81.6,71.3,62.6,64.6,61.3,58.8,90,72,46,30.14,30.03,4,0,6,0.00
2013-4-8,85.1,73.3,64.3,66.0,62.6,58.3,87,71,42,30.12,30.03,4,1,7,0.00
2013-4-9,84.0,73.4,64.2,67.6,64.3,60.7,89,74,51,30.14,30.05,5,1,9,0.00
2013-4-10,71.5,69.6,67.7,63.7,63.4,63.0,85,81,76,30.10,30.06,1,0,3,0.00
2013-4-12,78.8,76.6,73.8,74.5,72.6,68.7,90,87,84,29.92,29.80,11,6,16,0.00
2013-4-13,87.3,76.0,69.8,71.7,69.2,66.7,91,80,55,29.98,29.87,3,0,4,0.00
2013-4-14,82.5,75.7,70.4,75.2,69.9,63.3,90,82,71,30.01,29.85,11,3,15,0.00
2013-4-15,88.7,77.8,69.4,73.0,67.5,62.8,81,71,59,30.03,29.93,5,1,11,0.00
2013-4-19,83.3,80.1,76.8,74.8,73.6,72.8,89,81,74,30.01,29.93,11,7,18,0.00
2013-4-20,76.8,73.2,66.9,73.3,67.4,62.9,90,82,73,30.12,29.96,4,1,6,0.00
2013-4-21,83.5,71.1,62.7,72.7,65.3,58.9,90,83,60,30.11,30.00,2,0,4,0.02
2013-4-22,81.7,73.3,67.9,71.1,67.9,64.7,91,84,66,30.08,29.96,4,0,7,0.25
2013-4-23,84.1,74.1,67.3,70.2,65.0,62.8,89,75,50,30.10,29.99,2,0,6,0.00
2013-4-24,84.0,73.3,63.6,69.1,64.1,58.9,90,74,44,30.13,30.06,5,1,9,0.00
2013-4-25,83.3,74.8,64.9,71.3,66.6,61.6,90,76,59,30.20,30.08,5,1,10,0.00
2013-4-26,85.7,75.7,65.8,71.6,66.2,61.8,88,73,53,30.24,30.14,3,0,4,0.00
2013-4-27,84.7,76.6,69.2,71.3,67.1,64.6,90,73,52,30.21,30.06,2,0,4,0.00
2013-4-28,84.7,80.1,76.3,69.1,67.9,64.1,75,67,56,30.01,29.95,6,2,10,0.00
2013-4-29,83.6,79.2,75.2,72.6,70.4,63.1,87,75,63,30.01,29.90,8,4,12,0.00
2013-4-30,86.7,76.8,70.5,73.2,69.6,65.5,91,79,53,29.99,29.90,6,1,10,0.24
2013-5-1,74.4,70.3,66.3,71.4,67.4,63.8,92,91,88,29.99,29.90,5,0,6,1.05
2013-5-2,78.5,71.7,66.8,71.3,67.5,64.1,92,87,74,29.96,29.80,4,0,5,0.00
2013-5-3,81.4,74.4,68.2,71.4,68.4,65.1,91,82,68,29.82,29.72,4,1,5,0.00
2013-5-4,78.6,72.6,67.2,70.4,67.5,64.4,92,84,71,29.82,29.68,5,1,10,0.00
2013-5-5,74.9,69.8,66.0,67.4,58.6,52.6,90,69,48,29.95,29.80,2,1,5,0.01
2013-5-6,74.3,69.9,64.3,64.5,60.3,57.6,85,72,62,30.01,29.90,4,1,8,0.01
2013-5-7,76.0,68.9,61.2,62.1,59.5,56.8,88,73,59,30.06,29.97,7,2,12,0.00
2013-5-8,78.7,69.3,61.7,64.0,61.4,58.4,90,77,56,30.13,30.03,6,1,10,0.00
2013-5-10,85.7,81.8,76.5,73.6,71.3,66.3,89,72,53,30.08,30.00,8,3,13,0.00
2013-5-11,85.2,78.2,73.3,76.9,73.5,70.5,91,86,70,30.06,29.99,8,2,14,0.00
2013-5-12,84.3,78.7,74.2,74.8,72.3,69.0,91,81,69,30.05,29.94,5,2,9,0.00
2013-5-13,82.5,75.3,70.3,70.0,63.9,53.4,89,69,49,30.13,30.00,3,0,5,0.00
2013-5-14,81.4,72.8,62.8,60.8,54.4,48.6,72,54,33,30.21,30.10,2,1,5,0.00
2013-5-15,86.4,74.6,63.2,66.0,59.8,53.7,83,63,35,30.20,30.06,4,0,9,0.00
2013-5-16,84.7,77.7,68.9,68.6,65.0,62.0,83,66,52,30.12,30.00,4,1,8,0.00
2013-5-17,86.3,78.6,69.5,70.2,67.5,64.0,83,70,56,30.09,30.01,5,1,9,0.00
2013-5-18,88.1,78.1,71.3,73.8,69.3,65.6,90,75,54,30.10,30.01,5,1,6,0.00
2013-5-19,87.2,79.0,69.9,71.4,69.1,66.4,90,73,52,30.09,29.98,4,1,7,0.00
2013-5-20,88.8,78.6,72.1,75.7,70.5,66.3,86,77,56,30.06,29.95,5,1,9,0.00
2013-5-21,87.4,76.9,69.6,72.7,69.9,66.6,91,80,57,30.02,29.91,5,1,8,0.00
2013-5-22,86.4,77.4,69.6,74.0,70.7,66.2,90,80,63,29.96,29.88,3,0,9,0.00
2013-5-23,85.6,80.7,71.7,74.5,72.3,68.3,90,76,62,30.02,29.90,5,1,10,0.00
2013-5-24,88.2,80.5,73.0,77.4,72.9,69.2,90,78,60,30.06,29.97,4,0,6,0.00
2013-5-25,90.9,81.8,74.3,71.8,67.9,62.9,86,65,42,30.15,30.04,3,1,6,0.00
2013-5-26,87.1,77.5,68.1,65.9,61.0,51.8,84,60,32,30.20,30.09,2,0,5,0.00
2013-5-27,88.5,79.2,67.4,68.6,64.6,62.6,87,63,44,30.17,30.02,3,1,6,0.00
2013-5-28,90.0,77.7,71.7,74.5,70.5,67.6,90,79,57,30.13,30.00,5,1,15,1.01
2013-5-29,87.0,78.0,72.1,73.7,71.0,69.0,91,80,61,30.08,30.00,5,1,17,0.01
2013-5-30,87.9,78.8,73.7,74.0,71.3,69.0,89,78,61,30.06,29.97,5,2,12,0.02
2013-5-31,86.5,78.5,73.3,75.2,72.1,68.9,88,81,67,30.07,29.99,5,1,9,0.00
2013-6-1,85.8,78.6,74.7,77.7,74.0,71.3,91,86,71,30.01,29.94,4,1,6,0.67
2013-6-2,86.3,79.4,73.3,77.0,73.8,70.5,91,84,71,29.99,29.89,7,2,12,0.01
2013-6-3,82.5,78.5,75.9,76.8,74.3,72.4,90,87,80,29.99,29.89,6,2,10,0.29
2013-6-4,82.9,79.4,75.7,75.5,73.7,72.1,89,83,75,30.01,29.93,7,2,9,0.00
2013-6-5,83.9,77.9,73.8,75.1,72.9,70.7,91,85,69,30.00,29.87,6,1,14,0.27
2013-6-6,78.9,76.4,74.2,75.2,73.1,71.4,91,89,85,29.86,29.68,16,6,31,1.75
2013-6-7,83.8,78.8,73.5,76.1,73.7,70.4,91,85,73,29.96,29.78,7,2,11,0.00
2013-6-8,85.3,78.2,71.9,78.7,73.9,69.1,92,87,78,30.09,29.96,7,2,10,1.23
2013-6-9,88.3,79.5,71.6,77.8,73.8,68.8,92,83,66,30.08,30.00,5,1,10,0.05
2013-6-10,88.1,81.1,76.0,78.5,74.7,72.3,91,81,67,30.07,30.00,6,1,9,0.00
2013-6-11,86.2,79.5,76.4,79.0,74.8,72.2,90,86,77,30.09,30.02,3,0,5,0.32
2013-6-15,80.2,79.0,78.5,75.2,74.0,72.9,88,85,82,30.04,30.02,0,0,1,0.00
2013-6-16,90.0,84.1,77.6,80.2,77.5,74.4,91,81,65,30.07,30.01,12,1,12,0.25
2013-6-17,90.3,84.5,77.1,77.8,76.3,74.3,91,77,63,30.06,29.98,12,1,12,0.00
2013-6-18,89.5,83.8,78.2,78.4,76.4,74.4,89,79,64,30.05,29.96,14,2,14,0.00
2013-6-19,90.5,83.4,75.2,79.5,76.5,71.5,91,80,67,30.03,29.96,12,1,12,0.52
2013-6-20,89.8,82.7,77.3,78.2,74.6,71.7,86,77,58,30.09,30.00,10,1,10,0.00
2013-6-21,89.9,81.6,73.8,77.5,73.3,70.7,90,77,60,30.10,30.03,11,1,11,0.14
2013-6-22,73.8,73.3,72.8,70.7,70.2,69.7,90,90,90,30.09,30.03,1,0,1,0.01
2013-7-5,88.3,79.3,73.5,77.6,74.4,69.5,91,85,67,30.11,30.05,18,1,18,0.31
2013-7-6,91.3,81.2,73.9,78.2,74.6,71.1,92,81,56,30.10,30.00,13,1,13,0.00
2013-7-7,91.8,82.9,75.8,77.4,74.9,72.8,91,78,57,30.12,30.00,14,0,14,0.00
2013-7-8,91.1,82.6,76.1,78.2,74.6,71.9,91,78,59,30.15,30.06,13,0,13,0.00
2013-7-9,91.5,82.8,75.3,77.3,73.7,71.2,90,75,53,30.16,30.04,9,0,9,0.00
2013-7-10,90.3,81.6,75.7,76.8,73.9,71.7,91,78,60,30.08,29.96,12,0,12,0.10
2013-7-11,85.9,80.1,75.6,77.3,74.6,72.5,91,84,70,30.02,29.92,16,2,16,0.01
2013-8-10,91.0,84.3,80.1,80.4,77.8,75.0,91,81,65,30.10,30.02,5,1,7,0.28
2013-8-11,92.4,84.8,76.0,80.2,76.7,73.2,92,78,59,30.13,30.03,3,1,6,0.00
2013-8-12,92.7,85.0,77.0,81.0,77.4,74.1,91,79,59,30.12,29.99,1,0,4,0.00
2013-8-13,91.1,84.5,77.1,79.1,75.9,73.6,90,76,59,30.05,29.92,5,1,11,0.00
2013-8-14,89.5,84.5,79.0,79.2,77.0,75.1,89,79,65,30.00,29.91,7,2,13,0.00
2013-8-15,81.5,79.8,78.2,76.1,74.8,73.7,87,85,83,30.01,29.95,1,0,3,0.00
2013-8-18,92.0,82.1,74.3,79.2,75.6,71.5,92,82,60,30.11,29.98,6,2,9,0.61
2013-8-19,92.3,79.5,74.0,79.1,74.4,71.5,92,85,60,30.06,29.94,7,0,9,0.19
2013-8-20,91.3,79.4,74.5,78.8,74.1,71.7,92,85,59,30.06,29.98,4,0,11,0.17
2013-8-21,92.2,81.3,75.5,78.8,75.4,72.4,92,83,58,30.08,29.96,5,0,19,0.03
2013-8-22,91.6,79.9,74.6,79.5,75.2,71.7,92,86,61,30.06,29.96,4,0,7,0.01
2013-8-23,90.3,80.5,75.8,79.8,75.4,71.8,93,85,62,30.01,29.94,8,0,11,1.38
2013-8-24,92.2,80.9,74.9,79.2,75.1,72.1,92,84,64,30.10,29.98,7,0,12,0.83
2013-8-25,87.7,79.3,73.7,78.3,74.5,71.4,93,86,66,30.14,30.05,4,0,5,0.00
2013-8-26,89.6,81.4,76.2,77.9,75.1,71.6,92,82,63,30.13,29.99,4,0,6,0.00
2013-8-28,90.7,81.9,76.5,76.8,73.9,72.2,90,78,58,30.04,29.97,7,1,9,0.00
2013-8-29,90.1,81.9,73.2,77.5,74.2,70.4,92,78,62,30.03,29.93,2,0,6,0.00
2013-8-30,88.8,82.8,78.4,78.8,76.4,74.1,90,81,70,29.99,29.89,5,0,6,0.01
2013-8-31,88.4,82.1,76.4,77.6,75.1,72.3,91,80,67,29.98,29.88,6,1,10,0.05
2013-9-1,89.4,82.1,76.8,77.8,75.1,73.6,91,80,62,29.99,29.91,6,1,7,0.01
2013-9-2,89.5,81.8,76.2,79.0,75.5,72.1,92,82,69,30.02,29.92,5,1,6,0.02
2013-9-3,89.3,82.4,77.3,79.5,76.0,72.0,92,82,68,30.02,29.92,4,0,7,0.00
2013-9-4,91.6,80.8,74.8,78.6,74.8,69.9,90,83,61,30.07,29.95,10,0,20,0.09
2013-9-5,94.0,81.1,74.6,79.8,75.0,71.3,92,83,57,30.08,29.97,7,0,13,0.12
2013-9-6,91.2,81.9,74.4,80.0,75.8,71.4,92,83,61,30.05,29.92,4,1,10,0.06
2013-9-7,89.5,80.2,73.0,78.0,73.6,70.2,92,81,61,30.01,29.90,5,0,7,0.01
2013-9-8,89.5,81.6,74.4,77.2,74.2,71.1,91,79,61,29.96,29.85,1,0,4,0.00
2013-9-9,91.7,83.6,76.6,77.1,74.0,72.0,90,74,54,30.01,29.91,2,0,4,0.00
2013-9-10,91.0,83.2,76.5,76.1,73.0,68.3,90,73,51,30.06,29.97,4,1,7,0.00
2013-9-11,90.2,82.0,75.8,76.6,73.4,69.3,90,76,57,30.05,29.96,4,1,9,0.00
2013-9-12,89.4,80.7,74.9,77.5,73.5,70.9,88,79,65,30.01,29.88,5,0,6,0.00
2013-9-13,90.5,81.2,72.6,77.8,73.8,69.8,92,79,60,29.91,29.80,5,0,9,0.00
2013-9-14,92.1,83.0,76.1,77.2,74.8,70.7,92,77,59,29.96,29.83,4,0,7,0.00
2013-9-15,93.4,80.0,71.4,78.3,73.8,68.6,92,83,57,30.08,29.94,8,1,9,0.41
2013-9-16,90.3,78.5,73.9,78.4,74.0,71.0,92,87,63,30.05,29.97,4,0,7,0.12
2013-9-17,90.0,78.5,73.7,77.6,73.5,71.3,93,85,61,30.03,29.92,6,1,7,0.12
2013-9-18,90.3,79.2,74.4,77.5,73.9,71.9,92,85,61,30.02,29.93,4,0,7,0.50
2013-9-19,89.1,79.3,73.7,77.7,74.0,71.2,93,84,64,30.03,29.95,4,0,6,0.01
2013-9-20,88.4,80.3,74.2,74.5,72.3,69.4,91,78,57,30.02,29.88,2,0,5,0.00
2013-9-21,86.7,79.0,72.0,74.5,70.8,68.4,89,77,60,29.93,29.77,7,2,11,0.00
2013-9-23,81.7,77.7,75.8,78.4,75.2,73.6,93,92,88,29.94,29.88,4,1,6,1.79
2013-9-24,80.0,76.6,75.1,76.6,74.2,72.9,93,92,89,29.97,29.84,6,1,9,1.84
2013-9-25,81.0,76.1,71.2,77.8,73.0,69.1,93,90,83,29.94,29.79,10,2,14,1.32
2013-9-26,88.3,82.7,77.5,80.2,77.2,73.2,91,84,70,29.86,29.79,7,2,11,0.00
2013-9-27,85.5,78.5,72.2,75.3,72.0,69.7,92,81,67,29.95,29.85,3,0,5,0.00
2013-9-28,87.6,79.0,72.4,76.5,72.4,69.9,92,81,64,29.99,29.90,4,0,5,0.00
2013-9-29,87.9,79.6,72.3,73.8,71.2,66.8,91,77,51,29.98,29.88,2,0,7,0.00
2013-9-30,90.2,80.3,71.9,75.4,72.2,69.2,92,78,54,29.98,29.90,3,0,5,0.00
2013-10-1,90.4,81.4,73.3,76.1,72.4,70.5,92,76,55,30.03,29.94,3,0,4,0.00
2013-10-2,89.1,80.9,74.3,74.8,72.7,70.8,90,77,61,30.03,29.95,3,0,5,0.00
2013-10-3,89.1,80.6,73.8,76.4,72.9,70.3,89,78,58,30.05,29.95,5,0,5,0.00
2013-10-4,88.5,81.8,75.5,76.3,73.8,70.9,91,78,58,30.07,29.98,4,0,7,0.00
2013-10-5,87.7,80.8,74.0,76.7,73.2,70.2,89,78,62,30.05,29.93,5,0,8,0.00
2013-10-6,87.3,80.2,73.1,76.4,73.1,69.6,92,80,57,29.97,29.86,7,2,12,0.00
2013-10-7,85.3,79.2,74.4,78.6,75.0,71.7,92,87,78,29.87,29.75,12,4,19,0.04
2013-10-9,79.9,75.5,70.1,71.7,69.6,66.0,88,82,76,30.03,29.97,1,0,2,0.00
2013-10-10,85.7,78.7,67.1,73.9,70.4,64.7,92,76,64,30.05,29.95,1,0,5,0.00
2013-10-11,87.5,77.3,67.7,71.2,68.0,65.0,92,74,53,30.04,29.94,1,0,6,0.00
2013-10-12,85.5,76.7,68.1,69.5,66.2,61.9,89,71,49,30.04,29.97,1,0,2,0.00
2013-10-13,85.8,76.8,66.3,72.0,65.5,62.1,89,70,48,30.07,29.97,1,0,2,0.00
2013-10-14,84.7,76.4,68.0,71.5,67.9,63.9,89,76,57,30.04,29.92,1,0,5,0.00
2013-10-15,82.2,75.2,68.9,73.7,69.6,66.2,92,83,70,29.99,29.90,1,0,3,0.00
2013-10-16,83.7,75.8,70.5,74.5,70.4,67.8,92,84,71,29.96,29.89,4,0,9,0.00
2013-10-17,86.7,77.5,70.0,73.6,70.2,67.3,92,79,56,29.97,29.89,6,1,9,0.00
2013-10-18,87.0,79.2,71.7,75.4,72.3,68.9,92,80,62,29.98,29.89,7,1,12,0.00
2013-10-19,86.9,79.1,73.9,77.3,74.0,71.1,92,85,60,29.94,29.86,6,2,10,0.01
2013-10-20,87.8,79.8,75.1,77.8,74.3,72.8,93,84,64,29.95,29.87,4,0,6,0.01
2013-10-21,87.2,79.6,74.0,76.5,73.4,71.4,92,82,64,30.00,29.91,6,1,9,0.00
2013-10-22,85.4,77.7,71.3,78.1,73.3,68.9,93,87,76,29.95,29.82,8,2,12,0.01
2013-10-23,79.1,75.3,72.6,73.7,66.1,55.4,93,74,49,30.00,29.81,2,0,4,0.00
2013-10-24,72.9,68.4,63.8,60.4,54.2,47.5,80,61,51,30.16,29.99,1,0,3,0.00
2013-10-25,79.3,70.4,62.3,63.6,58.8,54.8,88,69,45,30.23,30.13,1,0,4,0.00
2013-10-26,79.7,69.5,61.5,63.5,59.6,55.9,86,72,46,30.20,30.09,1,0,3,0.00
2013-10-27,78.9,68.7,59.6,64.3,59.3,55.4,90,73,51,30.12,30.04,1,0,3,0.00
2013-10-28,81.6,71.4,61.8,64.8,61.0,57.4,88,71,50,30.18,30.07,1,0,3,0.00
2013-10-29,84.5,74.8,65.1,68.6,64.4,61.0,89,72,48,30.22,30.11,2,0,5,0.00
2013-10-30,85.5,75.8,67.3,70.6,66.6,64.4,91,75,53,30.22,30.07,2,0,5,0.00
2013-10-31,85.4,75.7,67.3,72.2,68.4,64.5,91,79,56,30.12,29.97,5,1,9,0.00
2013-11-1,82.5,77.2,71.7,76.0,72.8,68.9,92,86,77,30.00,29.88,8,3,14,0.00
2013-11-2,79.3,73.6,68.5,74.7,69.4,62.9,92,87,74,29.97,29.82,6,1,7,0.00
2013-11-3,76.1,69.1,62.9,62.9,54.2,46.6,86,61,36,30.10,29.96,2,0,4,0.00
2013-11-4,80.8,69.7,60.4,63.9,59.5,52.8,85,71,52,30.14,30.05,5,1,12,0.00
2013-11-5,82.7,74.4,66.5,70.8,67.6,63.5,92,80,65,30.11,30.02,5,2,12,0.00
2013-11-6,84.7,75.9,70.2,70.7,68.6,67.1,92,79,58,30.09,29.99,2,0,5,0.00
2013-11-7,80.6,73.5,67.9,71.6,68.2,65.5,92,84,71,30.05,29.97,1,0,5,0.00
2013-11-8,72.8,69.6,66.2,68.6,65.4,61.4,91,87,76,30.10,29.99,2,0,4,0.00
2013-11-9,83.3,73.7,65.5,70.5,65.6,61.2,86,76,63,30.14,30.05,4,1,5,0.00
2013-11-10,82.0,74.3,66.9,70.1,66.6,63.5,89,78,63,30.15,30.05,2,0,4,0.00
2013-11-11,82.4,73.9,67.7,71.0,67.5,64.7,90,81,63,30.15,30.04,1,0,3,0.00
2013-11-12,79.8,72.3,66.7,71.6,67.1,60.7,92,84,69,30.10,30.00,1,0,3,0.00
2013-11-13,70.9,63.8,55.5,59.8,53.2,49.4,80,69,60,30.28,30.06,5,2,7,0.00
2013-11-14,77.1,63.8,54.2,59.8,54.7,49.4,85,73,52,30.27,30.14,4,1,10,0.00
2013-11-15,75.7,69.4,63.9,67.2,63.1,58.9,86,80,69,30.16,30.03,1,0,4,0.00
2013-11-16,78.5,73.5,70.4,71.2,67.5,65.6,90,82,71,30.11,30.00,4,0,9,0.00
2013-11-17,84.1,75.5,70.0,72.8,68.8,65.0,90,80,60,30.07,29.98,6,1,10,0.00
2013-11-18,82.2,75.5,69.9,72.5,70.4,67.3,92,85,71,30.02,29.93,6,1,9,0.01
2013-11-19,82.2,75.0,69.9,73.5,70.2,63.7,93,85,73,29.96,29.86,1,0,2,0.07
2013-11-20,81.7,72.8,65.8,73.3,67.9,62.5,90,85,75,30.08,29.95,3,0,5,0.00
2013-11-21,83.4,75.7,71.3,73.3,70.7,68.1,92,85,69,30.16,30.06,3,1,7,0.00
2013-11-22,82.9,75.9,71.0,73.1,69.5,65.2,92,81,65,30.17,30.07,3,0,4,0.00
2013-11-23,81.7,49.2,66.3,70.1,10.5,-99.9,92,52,64,30.11,30.00,2,-339,4,0.00
2013-11-24,73.2,21.6,67.0,64.5,-50.0,-99.9,85,24,72,30.20,30.02,4,-692,10,0.00
2013-11-25,77.7,24.2,72.0,63.0,-47.9,-99.9,69,20,59,30.20,30.03,5,-677,12,0.00
2013-11-26,81.1,41.9,72.3,73.7,-6.0,-99.9,92,47,76,30.02,29.77,13,-450,21,0.00
2013-11-27,73.5,65.7,51.5,71.4,58.8,42.8,93,79,64,30.19,29.75,7,2,13,0.30
2013-11-28,62.2,52.6,41.1,52.9,43.7,34.1,85,72,61,30.34,30.19,3,0,7,0.00
2013-11-29,72.2,61.7,52.3,58.6,54.1,49.3,91,77,56,30.34,30.24,3,0,4,0.00
2013-11-30,76.2,65.2,55.6,65.5,59.1,51.8,91,81,69,30.30,30.15,3,0,5,0.00
2013-12-1,71.7,64.2,60.4,65.9,61.1,58.1,93,90,81,30.18,29.98,1,0,4,0.00
2013-12-2,68.7,64.4,59.4,62.4,60.2,57.1,93,86,77,29.98,29.85,0,0,0,0.00
2013-12-3,75.8,69.3,60.5,68.9,64.2,57.9,92,84,72,29.97,29.89,6,1,11,0.00
2013-12-4,79.7,72.6,65.7,70.5,67.5,63.3,93,84,72,30.07,29.95,8,2,12,0.00
2013-12-5,82.1,72.5,65.7,70.5,66.9,63.3,92,83,59,30.16,30.06,5,1,7,0.00
2013-12-6,82.0,73.4,66.7,73.1,69.0,64.4,93,86,72,30.16,30.07,9,2,13,0.00
2013-12-7,83.0,73.5,66.6,71.0,67.8,64.5,93,83,57,30.22,30.13,3,0,5,0.00
2013-12-8,84.2,73.4,66.2,70.8,67.5,64.1,93,83,61,30.20,30.08,5,1,9,0.00
2013-12-9,81.1,73.1,66.9,72.8,68.7,64.5,93,86,74,30.17,30.08,8,2,14,0.00
2013-12-10,80.0,72.0,62.9,72.8,68.1,60.8,93,88,77,30.16,30.08,7,2,11,0.00
2013-12-11,83.7,72.1,65.5,70.5,66.7,61.7,93,84,61,30.23,30.14,2,0,5,0.00
2013-12-12,72.1,66.6,57.7,66.7,55.1,35.2,93,70,38,30.29,30.17,3,1,4,0.00
2013-12-16,63.5,59.6,53.4,52.3,48.7,44.2,80,67,58,30.22,30.13,1,0,4,0.00
2013-12-17,69.2,59.0,49.6,56.8,50.5,43.9,83,74,61,30.25,30.14,1,0,3,0.00
2013-12-18,70.3,59.8,49.8,54.6,49.2,44.5,90,70,44,30.28,30.19,2,0,3,0.00
2013-12-19,77.8,63.7,50.0,60.6,53.1,46.1,88,70,44,30.26,30.14,3,0,7,0.00
2013-12-20,83.5,71.7,60.9,69.7,63.9,56.3,88,77,62,30.17,30.07,6,1,10,0.00
2013-12-21,85.0,74.9,69.5,72.1,69.2,65.8,91,83,64,30.12,30.00,9,3,15,0.00
2013-12-22,81.4,75.2,70.8,73.6,70.5,67.9,92,86,75,30.13,30.04,12,4,23,0.00
2013-12-23,80.3,74.5,69.5,74.4,71.0,67.1,93,89,81,30.16,30.09,10,4,14,0.00
2013-12-24,74.0,66.6,62.8,71.5,61.9,57.1,92,85,69,30.23,30.11,6,1,9,0.00
2013-12-27,76.1,71.0,65.9,68.2,65.5,62.9,91,83,75,30.20,30.10,3,1,5,0.00
2013-12-28,79.9,72.5,65.5,70.9,67.6,62.8,92,85,73,30.19,29.98,5,1,9,0.00
2013-12-29,74.5,70.9,64.9,72.0,68.0,62.2,92,91,87,30.01,29.88,11,3,22,0.25
2013-12-30,66.8,64.1,62.5,62.5,60.5,59.2,91,88,81,30.19,30.00,1,0,3,0.00
2013-12-31,67.5,64.0,60.8,59.2,55.0,52.9,88,73,63,30.28,30.14,2,0,4,0.00
2014-1-1,69.2,64.3,59.8,64.9,60.0,53.4,92,86,72,30.23,30.04,3,0,5,0.02
2014-1-2,76.8,69.7,62.2,72.3,66.9,56.3,93,91,81,30.04,29.85,11,3,16,0.16